Temperature
13 12 12 11 11 11 10 10 10 10 10 10 9 9 9 9 8 8 8 7 7 7 6 6 5 5 4 4 3 2 2 1 0 1 1 0 -0 -0 -1 -1 -1 -2 -2
12 12 11 11 11 10 10 10 10 9 9 9 9 9 9 8 8 8 7 7 7 6 6 5 5 4 4 3 3 2 1 1 -0 -0 0 -0 -1 -1 -1 -2 -2 -2 -3
12 11 11 10 10 10 10 10 9 9 9 9 9 9 8 8 8 7 7 6 6 6 5 5 4 4 3 3 2 2 1 0 -0 -1 -1 -1 -1 -2 -2 -2 -3 -3 -3
11 11 10 10 10 10 10 9 9 9 9 9 8 8 8 8 7 7 6 6 6 5 5 4 4 3 3 2 1 1 0 -0 -1 -2 -2 -2 -2 -3 -3 -3 -4 -4 -4
11 11 10 10 10 9 9 9 9 8 8 8 8 8 7 7 7 7 6 6 5 5 4 4 3 3 2 1 1 0 -1 -1 -2 -2 -3 -3 -3 -3 -4 -4 -5 -5 -5
11 11 10 10 9 9 9 8 8 8 8 8 8 7 7 7 6 6 5 5 4 4 4 3 3 2 1 1 0 -1 -1 -2 -2 -3 -3 -4 -4 -4 -5 -5 -6 -6 -6
11 11 10 10 9 9 9 8 8 8 7 7 7 7 7 6 6 5 5 4 4 3 3 3 2 1 1 0 -0 -1 -1 -2 -3 -3 -4 -4 -4 -5 -5 -6 -6 -6 -6
11 10 10 9 9 9 8 8 8 7 7 7 7 6 6 6 5 5 4 3 3 3 2 2 1 1 0 -1 -1 -1 -2 -2 -3 -4 -4 -4 -5 -5 -6 -6 -6 -6 -6
11 10 10 9 9 8 8 8 7 7 7 6 6 6 5 5 4 4 3 3 2 2 2 1 0 -0 -1 -1 -2 -2 -3 -3 -3 -4 -5 -5 -5 -6 -6 -6 -7 -7 -7
11 11 10 9 9 8 8 7 7 7 6 6 5 5 5 4 4 3 2 2 2 1 1 0 -0 -1 -2 -2 -3 -3 -3 -4 -4 -5 -5 -5 -6 -6 -6 -7 -7 -7 -8
11 10 9 9 8 8 7 7 6 6 5 5 5 4 4 3 3 2 2 1 1 0 -0 -1 -1 -2 -2 -3 -3 -4 -4 -5 -5 -5 -6 -6 -6 -7 -7 -7 -8 -8 -8
10 9 9 8 7 7 6 6 5 5 5 4 4 3 3 3 2 2 1 0 -0 -1 -1 -1 -2 -3 -3 -4 -4 -4 -5 -6 -6 -6 -7 -7 -7 -7 -7 -8 -8 -8 -8
9 9 8 8 7 6 6 5 5 4 4 4 3 3 3 2 1 1 0 -0 -1 -1 -2 -2 -3 -3 -4 -4 -5 -5 -6 -6 -7 -7 -7 -7 -8 -8 -8 -8 -8 -8 -8
9 8 8 7 6 6 5 5 4 4 3 3 3 2 2 1 1 0 -0 -1 -1 -2 -2 -3 -3 -4 -4 -5 -5 -6 -6 -7 -7 -8 -8 -8 -8 -8 -9 -9 -9 -9 -9
8 8 7 6 6 5 5 4 4 3 3 2 2 1 1 1 0 -1 -1 -2 -2 -3 -3 -4 -4 -5 -5 -5 -6 -6 -7 -7 -8 -8 -8 -9 -9 -9 -9 -9 -9 -10 -10
8 7 6 6 5 5 4 3 3 2 2 1 1 1 0 -0 -1 -1 -2 -3 -3 -4 -4 -5 -5 -6 -6 -7 -7 -7 -8 -8 -8 -9 -9 -9 -9 -10 -10 -10 -10 -10 -10
7 7 6 5 5 4 3 3 2 2 1 1 0 -0 -1 -1 -1 -2 -3 -3 -4 -4 -5 -5 -6 -6 -7 -7 -8 -8 -8 -9 -9 -9 -10 -10 -10 -10 -10 -10 -10 -10 -10
6 6 5 5 4 3 3 2 2 1 1 0 -0 -1 -1 -2 -2 -3 -3 -4 -4 -5 -5 -6 -6 -7 -7 -8 -8 -9 -9 -9 -9 -10 -10 -10 -10 -11 -11 -11 -11 -11 -11
6 5 4 4 3 3 2 2 1 1 0 -0 -1 -1 -2 -2 -3 -3 -4 -5 -5 -5 -6 -7 -7 -8 -8 -9 -9 -9 -9 -10 -10 -10 -10 -10 -11 -11 -11 -11 -11 -11 -11
5 4 4 3 3 2 1 1 0 -0 -1 -1 -2 -2 -2 -3 -3 -4 -4 -5 -6 -6 -7 -7 -8 -8 -9 -9 -9 -10 -10 -10 -10 -10 -11 -11 -11 -11 -11 -11 -11 -11 -11
4 3 3 2 2 1 1 0 -0 -1 -1 -2 -2 -3 -3 -4 -4 -5 -5 -6 -6 -7 -7 -8 -8 -9 -9 -9 -10 -10 -10 -10 -11 -11 -11 -11 -11 -11 -11 -11 -12 -12 -11
3 3 2 2 1 1 -0 -1 -1 -2 -2 -2 -3 -3 -4 -4 -5 -5 -6 -6 -7 -7 -8 -8 -9 -9 -10 -10 -10 -10 -11 -11 -11 -11 -11 -11 -11 -11 -12 -12 -12 -12 -12
2 2 1 1 0 -0 -1 -1 -2 -2 -3 -3 -4 -4 -5 -5 -5 -6 -6 -7 -7 -8 -8 -9 -9 -9 -10 -10 -10 -11 -11 -11 -11 -11 -11 -11 -11 -12 -12 -12 -12 -12 -12
1 1 0 -0 -1 -1 -2 -2 -3 -3 -4 -4 -4 -5 -5 -6 -6 -6 -7 -7 -8 -8 -9 -9 -9 -10 -10 -10 -11 -11 -11 -11 -11 -11 -11 -12 -12 -12 -12 -12 -12 -12 -12
0 -0 -0 -1 -1 -2 -2 -3 -3 -4 -4 -5 -5 -5 -6 -6 -6 -7 -7 -8 -8 -9 -9 -9 -10 -10 -10 -10 -11 -11 -11 -11 -11 -12 -12 -12 -12 -12 -12 -12 -12 -12 -12
-0 -1 -1 -2 -2 -3 -3 -4 -4 -4 -5 -5 -5 -6 -6 -7 -7 -7 -8 -8 -8 -9 -9 -9 -10 -10 -10 -11 -11 -11 -11 -11 -11 -12 -12 -12 -12 -12 -12 -12 -12 -12 -12
Wind_Speed
12 12 12 12 12 13 13 13 13 11 12 13 12 11 10 10 9 8 7 7 7 5 5 5 6 4 4 4 3 4 4 5 8 7 5 5 5 7 11 13 14 15 15
11 11 12 11 12 12 12 12 12 13 12 12 11 11 10 10 9 9 8 7 7 7 6 6 6 4 5 4 4 5 5 6 6 10 7 5 6 7 7 7 10 13 13
10 11 11 12 12 13 12 12 12 12 11 11 11 11 11 10 9 9 8 8 8 7 7 7 6 5 6 5 5 6 5 6 6 8 9 5 5 5 6 7 8 8 13
11 11 12 12 12 12 11 12 12 12 12 12 11 11 10 9 9 8 8 7 7 6 6 7 7 7 7 7 6 7 6 6 6 7 8 6 5 6 5 6 7 6 8
11 11 11 10 10 10 11 11 11 11 11 11 10 9 8 8 8 8 8 7 7 6 6 6 7 9 10 9 7 6 6 6 6 7 8 7 6 5 5 5 8 8 7
11 11 9 10 10 10 11 10 10 10 9 9 10 9 9 8 11 13 9 7 7 7 7 7 7 8 11 14 15 14 11 8 7 6 7 8 8 6 6 7 8 9 7
10 10 10 10 10 10 10 10 10 10 9 9 8 8 8 8 11 12 12 7 7 7 7 6 6 7 10 7 11 14 13 16 15 10 9 9 8 7 7 8 8 9 9
10 10 10 10 10 10 10 10 9 8 8 8 8 8 7 7 10 11 10 6 6 6 7 7 7 7 7 8 7 7 8 9 11 8 8 10 9 9 8 9 9 9 8
11 11 11 11 11 10 10 9 7 7 7 6 7 7 7 6 9 9 8 4 5 6 6 6 6 7 12 14 8 7 8 8 12 16 18 17 19 20 15 7 6 7 8
11 10 10 11 11 11 10 8 6 6 6 6 6 6 6 5 7 8 7 4 4 5 5 6 9 10 13 14 7 7 9 8 7 9 10 12 11 13 16 8 6 7 7
9 9 9 9 10 9 8 6 7 6 6 5 5 4 4 5 6 7 7 3 5 5 4 5 6 12 14 15 12 7 11 11 7 6 6 6 6 6 6 6 5 5 6
10 10 9 9 8 8 8 7 7 7 6 5 4 3 2 3 4 6 8 7 6 4 5 5 6 12 14 14 11 12 16 14 5 4 5 5 5 5 6 6 7 7 8
11 10 9 9 7 8 8 8 6 6 5 4 4 4 3 2 3 7 8 8 9 5 5 9 10 12 12 9 12 15 12 6 4 5 6 6 5 5 4 4 5 6 7
11 10 9 9 7 6 6 6 6 6 5 5 4 4 3 3 3 3 4 5 7 6 5 7 10 10 8 9 9 8 5 5 5 6 6 5 4 3 4 3 3 3 4
10 9 8 7 8 6 5 5 6 5 6 6 5 5 4 4 6 7 4 4 4 5 3 2 2 3 4 4 5 5 5 5 6 5 5 5 5 4 4 3 2 2 3
10 8 7 6 6 6 5 3 3 3 4 4 4 4 4 5 7 7 8 9 9 9 4 3 4 4 5 5 5 5 5 5 5 5 5 5 5 4 4 3 3 3 4
10 9 7 7 6 6 5 5 3 2 2 1 1 2 3 5 6 7 8 8 8 8 4 4 4 5 5 5 5 5 5 5 5 5 5 5 4 4 4 4 3 3 4
9 9 8 6 6 6 5 4 4 3 1 1 2 3 4 5 6 6 7 5 4 4 3 4 5 5 5 5 5 5 5 5 4 4 5 5 4 4 4 4 4 4 4
9 7 6 6 5 5 4 4 3 3 2 2 2 3 4 5 5 6 5 2 4 4 5 5 5 5 5 5 5 5 5 5 5 4 4 5 4 4 4 4 4 7 5
7 10 8 6 5 5 4 4 3 3 2 2 3 3 2 2 2 3 3 4 4 5 5 5 5 6 5 5 5 5 5 5 5 5 5 5 4 4 4 5 4 4 4
7 7 9 6 5 5 4 4 3 3 3 3 4 4 5 3 4 5 5 4 5 6 6 6 5 5 5 5 5 6 6 5 5 5 5 4 4 4 4 4 4 4 4
7 6 5 5 4 4 3 3 3 3 3 4 4 4 7 4 4 5 5 5 5 5 5 5 5 5 5 5 6 6 6 6 5 5 5 5 4 4 4 3 3 3 3
7 6 5 4 3 4 3 2 3 3 3 4 4 4 4 4 5 5 6 5 5 5 5 5 6 6 5 6 6 6 6 6 6 5 5 5 5 4 4 4 4 4 4
6 6 5 4 3 3 3 3 3 3 3 4 4 4 4 5 5 6 6 5 5 5 5 5 6 7 9 7 7 7 8 8 8 7 7 7 6 5 5 4 4 4 4
5 5 4 4 3 3 2 2 3 3 4 4 4 5 5 5 5 6 6 6 6 6 7 7 6 7 9 10 9 9 12 14 12 8 7 6 7 6 6 5 4 4 4
5 4 4 3 3 3 3 3 3 4 4 5 5 5 5 6 6 6 6 6 6 6 7 6 8 9 10 10 11 13 14 14 14 13 7 5 6 6 6 5 6 5 5
Wind_Direction
179 180 179 180 178 177 181 184 181 178 175 177 177 175 176 177 176 177 185 184 192 204 205 209 225 224 227 229 224 223 222 215 258 277 260 269 274 277 292 293 294 294 294
179 178 179 176 174 178 181 180 177 177 178 178 175 176 179 181 181 185 191 192 198 208 214 216 232 232 236 237 233 236 237 229 244 278 285 277 267 271 274 280 291 295 293
175 177 176 176 177 181 179 176 175 175 175 174 174 179 183 185 186 191 193 198 204 210 212 218 230 228 243 246 244 246 251 256 245 266 284 276 269 272 280 283 283 286 291
176 178 181 182 181 178 173 172 173 173 173 176 180 183 184 185 188 191 193 200 208 215 217 221 228 227 238 246 252 251 255 260 261 267 279 281 272 268 271 283 294 281 286
176 181 185 177 170 167 168 169 169 170 174 175 176 179 181 185 192 191 194 199 207 219 228 230 234 242 249 255 261 255 252 259 266 271 280 285 283 283 279 277 292 293 281
178 182 173 166 166 167 168 166 165 168 169 170 178 181 187 197 204 203 197 198 206 217 233 242 247 253 263 272 276 278 275 273 272 271 278 279 281 274 275 280 288 298 297
175 173 169 167 168 168 164 164 169 172 169 174 181 184 194 204 204 208 208 201 210 221 231 241 256 260 270 265 277 285 286 286 284 282 280 278 280 274 276 280 277 280 284
171 170 169 166 166 163 164 170 171 169 173 179 184 188 193 206 207 214 215 209 218 229 233 236 244 256 262 269 263 266 265 270 278 281 267 270 271 271 264 273 281 284 275
174 174 172 168 165 165 170 172 168 167 174 180 183 184 192 210 214 217 215 203 224 239 243 242 248 253 271 282 279 271 274 273 282 285 287 289 293 298 300 299 297 298 299
179 172 166 165 167 171 173 168 162 167 174 173 179 185 191 205 216 218 218 200 226 245 252 254 261 268 279 287 279 271 277 278 276 286 289 293 296 298 301 295 285 288 293
158 152 156 161 164 163 159 156 154 154 154 164 173 185 195 208 219 226 229 213 222 237 249 254 257 277 283 286 287 275 281 291 283 278 281 285 289 287 285 279 265 260 272
142 146 150 151 151 148 147 148 149 150 154 164 173 193 210 218 227 239 244 250 254 237 247 249 259 282 287 289 291 290 295 302 298 293 290 286 285 285 280 275 272 265 258
138 143 143 141 140 144 149 150 149 152 159 172 180 200 224 228 242 253 258 262 267 261 256 273 282 287 291 291 292 297 302 300 290 287 286 282 275 273 276 283 284 283 281
140 140 140 139 137 137 142 150 155 163 167 175 188 205 224 235 243 246 246 257 267 272 274 280 289 293 295 294 296 299 292 277 282 275 277 275 274 276 275 272 281 300 303
136 137 137 138 141 140 141 156 163 177 178 181 194 197 206 234 245 253 256 245 245 252 276 257 264 279 277 278 279 276 271 276 284 273 275 281 286 285 282 275 272 287 285
139 141 142 140 138 138 134 110 110 143 175 185 191 199 227 250 268 270 276 281 285 288 293 271 267 267 270 275 278 279 273 273 271 270 272 274 279 281 283 283 273 276 285
145 146 142 142 143 144 146 147 140 75 91 126 196 237 262 276 281 282 286 290 291 294 281 269 269 270 270 269 269 269 271 271 264 264 267 267 270 274 278 280 284 288 287
137 141 143 145 147 149 153 154 156 162 184 278 285 279 289 292 294 294 297 305 295 288 261 263 267 269 270 268 267 265 268 271 264 261 262 262 258 263 269 273 278 278 283
136 139 138 139 140 143 145 147 155 169 190 230 285 295 295 298 297 294 299 269 262 265 262 262 264 266 268 267 265 262 261 262 260 257 259 257 255 252 259 265 273 289 293
135 141 140 139 138 140 146 155 167 180 199 224 244 258 274 290 272 275 266 255 257 262 264 264 265 264 263 262 261 261 262 260 258 255 255 254 249 248 253 258 263 272 277
133 140 137 135 144 153 160 171 179 189 211 233 248 263 276 263 254 257 259 258 255 259 262 263 263 265 262 259 258 258 257 258 253 250 249 247 244 246 245 246 255 261 270
134 136 140 146 150 158 167 174 183 201 221 241 260 273 282 280 266 266 265 265 260 257 257 259 261 257 253 252 255 257 258 257 254 248 247 245 241 241 238 239 250 257 264
133 136 137 142 151 167 165 176 196 215 234 248 257 264 268 263 264 266 267 269 267 266 263 260 262 261 257 257 252 247 251 254 251 245 243 244 238 234 232 237 243 251 256
136 143 148 153 158 169 182 200 217 233 243 252 258 261 261 261 265 269 271 271 271 270 268 265 262 263 264 266 263 257 253 254 251 243 234 235 234 232 228 232 239 243 248
138 145 152 161 170 180 194 214 232 245 253 262 265 267 268 269 271 274 273 271 272 273 272 271 271 270 269 268 267 264 267 269 268 255 230 226 227 223 222 227 233 240 240
138 145 152 161 175 189 205 227 244 253 259 266 268 267 268 271 272 274 274 272 272 273 274 272 268 267 269 272 271 271 273 272 271 267 247 220 216 219 216 222 227 232 234
Height
1446 1451 1455 1460 1465 1469 1474 1478 1482 1486 1490 1493 1496 1498 1501 1502 1504 1505 1506 1506 1506 1506 1506 1505 1504 1503 1501 1500 1498 1496 1494 1491 1486 1481 1481 1479 1477 1474 1470 1467 1464 1460 1456
1442 1447 1451 1456 1460 1465 1469 1473 1477 1481 1485 1488 1491 1494 1496 1498 1499 1500 1501 1502 1502 1502 1501 1500 1499 1498 1496 1495 1493 1490 1488 1486 1481 1475 1473 1472 1469 1467 1463 1460 1457 1453 1450
1438 1442 1447 1451 1455 1460 1464 1468 1473 1477 1480 1484 1486 1489 1491 1493 1494 1496 1497 1497 1497 1497 1496 1495 1494 1493 1491 1489 1487 1484 1482 1479 1476 1471 1466 1465 1462 1460 1456 1453 1450 1446 1443
1434 1438 1442 1446 1451 1455 1460 1464 1468 1472 1475 1479 1482 1484 1487 1488 1490 1491 1492 1492 1492 1492 1491 1490 1489 1487 1485 1483 1481 1478 1476 1473 1470 1466 1461 1458 1455 1453 1449 1445 1441 1438 1435
1430 1433 1438 1442 1447 1451 1456 1460 1464 1467 1471 1474 1477 1479 1482 1483 1485 1486 1486 1487 1487 1486 1486 1485 1483 1482 1480 1477 1475 1473 1470 1467 1463 1459 1455 1452 1449 1446 1443 1439 1434 1430 1427
1426 1429 1434 1438 1443 1447 1451 1455 1459 1463 1466 1469 1472 1474 1476 1478 1479 1480 1481 1481 1481 1480 1480 1479 1477 1476 1474 1472 1469 1467 1465 1462 1457 1454 1449 1446 1442 1440 1436 1433 1428 1423 1419
1422 1426 1430 1435 1439 1443 1447 1451 1454 1458 1461 1464 1467 1469 1471 1473 1474 1475 1475 1475 1475 1474 1474 1472 1471 1469 1467 1465 1463 1460 1458 1456 1453 1449 1444 1440 1437 1433 1430 1426 1422 1419 1415
1419 1423 1427 1431 1435 1439 1443 1446 1450 1453 1456 1459 1462 1464 1466 1468 1469 1470 1470 1469 1469 1468 1468 1466 1464 1462 1461 1458 1455 1452 1450 1448 1446 1442 1439 1434 1431 1428 1425 1421 1417 1412 1408
1415 1419 1423 1427 1431 1435 1438 1442 1445 1449 1451 1454 1457 1459 1460 1462 1464 1464 1464 1463 1462 1462 1461 1460 1458 1456 1454 1452 1449 1445 1442 1440 1438 1435 1432 1429 1425 1422 1419 1415 1411 1407 1402
1412 1415 1420 1424 1427 1431 1434 1438 1441 1444 1447 1450 1452 1454 1455 1457 1458 1458 1458 1457 1456 1455 1454 1453 1452 1449 1447 1445 1442 1439 1435 1433 1430 1427 1425 1422 1419 1415 1413 1410 1406 1402 1398
1409 1413 1417 1420 1424 1428 1431 1434 1437 1440 1443 1445 1447 1449 1450 1451 1452 1453 1452 1451 1450 1449 1447 1446 1445 1443 1441 1438 1436 1433 1430 1427 1423 1420 1417 1414 1411 1408 1406 1403 1401 1398 1394
1406 1410 1414 1417 1421 1424 1427 1430 1433 1435 1438 1440 1442 1443 1445 1446 1447 1446 1446 1446 1445 1443 1441 1439 1438 1436 1434 1432 1429 1426 1424 1421 1417 1413 1410 1407 1405 1402 1399 1397 1395 1392 1389
1403 1407 1411 1414 1418 1421 1424 1426 1429 1431 1433 1434 1436 1438 1439 1440 1441 1441 1440 1439 1438 1437 1435 1433 1431 1429 1426 1424 1422 1420 1417 1414 1411 1407 1404 1402 1399 1396 1394 1391 1389 1387 1384
1401 1405 1408 1411 1415 1418 1420 1423 1425 1426 1428 1430 1431 1432 1434 1434 1435 1435 1434 1433 1432 1430 1428 1426 1424 1422 1420 1417 1415 1413 1411 1408 1405 1402 1399 1396 1394 1391 1389 1386 1384 1381 1379
1399 1402 1406 1409 1412 1414 1417 1419 1421 1423 1425 1426 1427 1428 1428 1429 1429 1429 1428 1427 1425 1424 1421 1419 1417 1415 1413 1411 1408 1406 1404 1402 1399 1396 1394 1391 1389 1386 1384 1382 1380 1377 1375
1397 1400 1403 1406 1409 1411 1414 1416 1418 1420 1421 1422 1423 1424 1424 1424 1424 1423 1422 1421 1419 1417 1415 1412 1410 1408 1406 1404 1402 1399 1397 1395 1393 1391 1388 1386 1384 1382 1380 1378 1376 1374 1371
1394 1398 1401 1403 1406 1409 1411 1413 1414 1416 1418 1418 1419 1419 1419 1419 1418 1417 1416 1414 1413 1411 1408 1406 1404 1402 1400 1398 1396 1393 1391 1389 1387 1385 1383 1381 1379 1377 1375 1374 1372 1370 1368
1393 1396 1399 1401 1404 1406 1408 1410 1411 1412 1413 1413 1414 1414 1414 1413 1412 1411 1410 1408 1406 1404 1402 1400 1398 1396 1394 1391 1389 1387 1385 1383 1382 1380 1378 1376 1374 1373 1371 1370 1368 1367 1365
1391 1394 1396 1399 1401 1403 1405 1406 1407 1408 1408 1409 1409 1409 1408 1407 1406 1405 1403 1401 1399 1397 1395 1393 1391 1389 1387 1385 1383 1381 1379 1378 1376 1374 1373 1371 1370 1368 1367 1366 1365 1363 1362
1389 1392 1394 1396 1398 1400 1401 1402 1403 1403 1403 1403 1403 1403 1402 1401 1400 1399 1397 1395 1393 1391 1389 1387 1385 1383 1381 1379 1377 1375 1373 1372 1370 1369 1368 1366 1365 1364 1363 1362 1361 1360 1359
1386 1389 1391 1393 1395 1396 1397 1398 1398 1399 1399 1398 1398 1398 1397 1395 1393 1392 1391 1389 1387 1385 1383 1380 1378 1377 1375 1373 1371 1369 1367 1366 1365 1363 1362 1361 1361 1360 1359 1358 1357 1356 1356
1384 1386 1388 1390 1391 1392 1393 1394 1394 1394 1394 1393 1393 1392 1391 1389 1388 1386 1384 1382 1380 1378 1376 1374 1371 1370 1368 1366 1364 1363 1361 1360 1359 1358 1357 1356 1356 1355 1355 1354 1354 1353 1353
1381 1383 1385 1386 1388 1388 1389 1389 1389 1389 1389 1388 1387 1386 1384 1383 1381 1379 1378 1376 1373 1371 1369 1367 1365 1363 1361 1360 1358 1357 1355 1354 1353 1352 1352 1351 1351 1350 1350 1350 1350 1350 1349
1379 1380 1382 1383 1383 1384 1384 1384 1384 1384 1383 1382 1381 1380 1378 1376 1375 1373 1371 1369 1366 1364 1362 1360 1358 1356 1354 1353 1351 1350 1349 1348 1347 1347 1346 1346 1346 1346 1346 1346 1346 1346 1346
1375 1377 1378 1379 1379 1379 1380 1379 1379 1379 1378 1376 1375 1373 1372 1370 1368 1366 1364 1362 1359 1357 1355 1353 1351 1349 1348 1346 1345 1344 1343 1342 1342 1341 1341 1341 1341 1341 1341 1342 1342 1342 1343
1372 1373 1374 1374 1375 1375 1375 1374 1374 1373 1372 1370 1369 1367 1365 1363 1361 1359 1357 1355 1353 1350 1348 1346 1345 1343 1341 1340 1338 1337 1337 1336 1336 1336 1336 1336 1336 1337 1337 1337 1338 1339 1339